Hartsville, SC

6:08 AM EST on December 08, 2019 (GMT -0500)
Hartsville Regional

Weather History for KHVS - July, 2019

Change the Weather History Date:

Sunday, July 21, 2019

  Actual Average (KFLO) Record (KFLO)
Temperature  
Mean Temperature 82 °F 81 °F  
Max Temperature 95 °F 91 °F 104 °F (1952)
Min Temperature 69 °F 72 °F 64 °F (2001)
Degree Days  
Heating Degree Days 0 0  
Month to date heating degree days 0  
Since 1 June heating degree days 1  
Since 1 July heating degree days 0  
Cooling Degree Days 17 16  
Month to date cooling degree days 336  
Year to date cooling degree days 1040  
Since 1 June cooling degree days 733  
Growing Degree Days 32 (Base 50)    
Moisture  
Dew Point 71 °F    
Average Humidity 71    
Maximum Humidity 100    
Minimum Humidity 36    
Precipitation  
Precipitation 0.00 in 0.17 in 1.70 in (1995)
Month to date precipitation 3.45  
Year to date precipitation 23.43  
Sea Level Pressure  
Sea Level Pressure 30.01 in    
Wind  
Wind Speed 3 mph (SW)    
Max Wind Speed 12 mph    
Max Gust Speed 20 mph    
Visibility 10 miles    
Events      
T = Trace of Precipitation, MM = Missing Value Source: NWS Daily Summary

Daily Weather History Graph

Daily Weather History Graph

Search for Another Location

Airport or City:

Astronomy

Jul. 21, 2019 Rise Set
Actual Time 6:23 AM EDT 8:30 PM EDT
Civil Twilight 5:54 AM EDT 8:58 PM EDT
Nautical Twilight 5:20 AM EDT 9:33 PM EDT
Astronomical Twilight 4:42 AM EDT 10:10 PM EDT
Moon 11:34 PM EDT (7/21) 10:33 AM EDT (7/21)
Length of Visible Light 15h 03m
Length of Day
14h 07m
Waning Gibbous, 80% of the Moon is Illuminated
Jul 21
Waning Gibbous
Jul 24
Last Quarter
Jul 31
New
Aug 7
First Quarter
Aug 15
Full

Hourly Weather History & Observations

Time (EDT) Temp. Heat Index Dew Point Humidity Pressure Visibility Wind Dir Wind Speed Gust Speed Precip Events Conditions
12:15 AM 77.0 °F - 73.4 °F 89% 30.05 in 10.0 mi Calm Calm - N/A   Mostly Cloudy
12:35 AM 77.0 °F - 73.4 °F 89% 30.04 in 10.0 mi SW 3.5 mph - N/A   Scattered Clouds
12:55 AM 73.4 °F - 73.4 °F 100% 30.04 in 10.0 mi Calm Calm - N/A   Clear
1:15 AM 73.4 °F - 73.4 °F 100% 30.04 in 10.0 mi Calm Calm - N/A   Clear
1:35 AM 73.4 °F - 73.4 °F 100% 30.04 in 10.0 mi Calm Calm - N/A   Clear
1:55 AM 73.4 °F - 71.6 °F 94% 30.03 in 10.0 mi Calm Calm - N/A   Clear
2:15 AM 73.4 °F - 73.4 °F 100% 30.02 in 10.0 mi Calm Calm - N/A   Clear
2:35 AM 73.4 °F - 73.4 °F 100% 30.01 in 10.0 mi Calm Calm - N/A   Clear
2:55 AM 73.4 °F - 73.4 °F 100% 30.01 in 10.0 mi WSW 3.5 mph - N/A   Clear
3:15 AM 71.6 °F - 71.6 °F 100% 30.00 in 10.0 mi Calm Calm - N/A   Clear
3:35 AM 71.6 °F - 71.6 °F 100% 30.00 in 10.0 mi Calm Calm - N/A   Clear
3:55 AM 71.6 °F - 71.6 °F 100% 29.99 in 10.0 mi Calm Calm - N/A   Clear
4:15 AM 71.6 °F - 71.6 °F 100% 30.00 in 10.0 mi SW 3.5 mph - N/A   Clear
4:35 AM 71.6 °F - 71.6 °F 100% 30.00 in 10.0 mi Calm Calm - N/A   Clear
4:55 AM 71.6 °F - 71.6 °F 100% 30.00 in 10.0 mi Calm Calm - N/A   Clear
5:15 AM 71.6 °F - 71.6 °F 100% 30.01 in 10.0 mi Calm Calm - N/A   Clear
5:35 AM 69.8 °F - 69.8 °F 100% 30.02 in 10.0 mi Calm Calm - N/A   Clear
5:55 AM 69.8 °F - 69.8 °F 100% 30.02 in 10.0 mi Calm Calm - N/A   Clear
6:15 AM 69.8 °F - 69.8 °F 100% 30.02 in 7.0 mi Calm Calm - N/A   Clear
6:35 AM 69.8 °F - 69.8 °F 100% 30.02 in 7.0 mi Calm Calm - N/A   Clear
6:55 AM 71.6 °F - 71.6 °F 100% 30.02 in 7.0 mi Calm Calm - N/A   Clear
7:15 AM 73.4 °F - 73.4 °F 100% 30.04 in 10.0 mi WSW 3.5 mph - N/A   Clear
7:35 AM 73.4 °F - 73.4 °F 100% 30.04 in 7.0 mi Calm Calm - N/A   Clear
7:55 AM 75.2 °F - 75.2 °F 100% 30.04 in 10.0 mi WSW 4.6 mph - N/A   Clear
8:15 AM 77.0 °F - 77.0 °F 100% 30.04 in 10.0 mi SW 4.6 mph - N/A   Clear
8:35 AM 78.8 °F - 77.0 °F 94% 30.04 in 10.0 mi SW 4.6 mph - N/A   Clear
8:55 AM 80.6 °F 87.1 °F 77.0 °F 89% 30.04 in 10.0 mi SW 3.5 mph - N/A   Clear
9:15 AM 82.4 °F 89.5 °F 75.2 °F 79% 30.05 in 10.0 mi WSW 5.8 mph - N/A   Clear
9:35 AM 84.2 °F 94.1 °F 77.0 °F 79% 30.04 in 10.0 mi SW 4.6 mph - N/A   Clear
9:55 AM 86.0 °F 93.4 °F 73.4 °F 66% 30.05 in 10.0 mi West 3.5 mph - N/A   Clear
10:15 AM 86.0 °F 93.4 °F 73.4 °F 66% 30.05 in 10.0 mi West 5.8 mph - N/A   Clear
10:35 AM 87.8 °F 95.6 °F 73.4 °F 62% 30.05 in 10.0 mi West 5.8 mph - N/A   Clear
10:55 AM 89.6 °F 96.2 °F 71.6 °F 55% 30.05 in 10.0 mi WSW 9.2 mph - N/A   Clear
11:15 AM 89.6 °F 96.2 °F 71.6 °F 55% 30.05 in 10.0 mi West 9.2 mph - N/A   Clear
11:35 AM 89.6 °F 94.7 °F 69.8 °F 52% 30.05 in 10.0 mi WSW 9.2 mph 16.1 mph N/A   Scattered Clouds
11:55 AM 89.6 °F 94.7 °F 69.8 °F 52% 30.04 in 10.0 mi SW 11.5 mph - N/A   Scattered Clouds
12:15 PM 91.4 °F 96.8 °F 69.8 °F 49% 30.04 in 10.0 mi WSW 10.4 mph - N/A   Clear
12:35 PM 91.4 °F 96.8 °F 69.8 °F 49% 30.04 in 10.0 mi WSW 9.2 mph 17.3 mph N/A   Clear
12:55 PM 93.2 °F 98.8 °F 69.8 °F 46% 30.03 in 10.0 mi South 6.9 mph - N/A   Clear
1:15 PM 91.4 °F 94.0 °F 66.2 °F 43% 30.02 in 10.0 mi SW 9.2 mph 18.4 mph N/A   Clear
1:35 PM 91.4 °F 95.4 °F 68.0 °F 46% 30.02 in 10.0 mi WSW 10.4 mph 16.1 mph N/A   Clear
1:55 PM 93.2 °F 97.7 °F 68.0 °F 44% 30.02 in 10.0 mi West 3.5 mph 18.4 mph N/A   Scattered Clouds
2:15 PM 95.0 °F 99.5 °F 68.0 °F 41% 30.02 in 10.0 mi West 8.1 mph 17.3 mph N/A   Scattered Clouds
2:35 PM 95.0 °F 98.5 °F 66.2 °F 39% 30.01 in 10.0 mi West 5.8 mph - N/A   Scattered Clouds
2:55 PM 95.0 °F 97.0 °F 64.4 °F 36% 30.00 in 10.0 mi SW 10.4 mph 16.1 mph N/A   Scattered Clouds
3:15 PM 95.0 °F 97.0 °F 64.4 °F 36% 29.99 in 10.0 mi West 9.2 mph 19.6 mph N/A   Clear
3:55 PM 95.0 °F 98.5 °F 66.2 °F 39% 29.98 in 10.0 mi SSW 9.2 mph 16.1 mph N/A   Mostly Cloudy
4:15 PM 95.0 °F 98.5 °F 66.2 °F 39% 29.97 in 10.0 mi SW 10.4 mph 16.1 mph N/A   Mostly Cloudy
4:35 PM 95.0 °F 99.5 °F 68.0 °F 41% 29.97 in 10.0 mi SW 10.4 mph - N/A   Mostly Cloudy
4:55 PM 95.0 °F 98.5 °F 66.2 °F 39% 29.97 in 10.0 mi SW 9.2 mph - N/A   Scattered Clouds
5:15 PM 95.0 °F 98.5 °F 66.2 °F 39% 29.97 in 10.0 mi WSW 10.4 mph - N/A   Scattered Clouds
5:35 PM 95.0 °F 98.5 °F 66.2 °F 39% 29.97 in 10.0 mi WSW 3.5 mph - N/A   Scattered Clouds
5:55 PM 95.0 °F 99.5 °F 68.0 °F 41% 29.97 in 10.0 mi WSW 3.5 mph - N/A   Scattered Clouds
6:15 PM 95.0 °F 98.5 °F 66.2 °F 39% 29.96 in 10.0 mi WSW 8.1 mph - N/A   Scattered Clouds
6:35 PM 93.2 °F 97.7 °F 68.0 °F 44% 29.96 in 10.0 mi SW 8.1 mph - N/A   Scattered Clouds
6:55 PM 91.4 °F 95.4 °F 68.0 °F 46% 29.97 in 10.0 mi South 9.2 mph - N/A   Scattered Clouds
7:15 PM 91.4 °F 95.4 °F 68.0 °F 46% 29.96 in 10.0 mi SSW 5.8 mph - N/A   Scattered Clouds
7:35 PM 89.6 °F 93.4 °F 68.0 °F 49% 29.97 in 10.0 mi SSW 5.8 mph - N/A   Clear
7:55 PM 87.8 °F 91.4 °F 68.0 °F 52% 29.97 in 10.0 mi SSW 4.6 mph - N/A   Clear
8:15 PM 86.0 °F 89.4 °F 68.0 °F 55% 29.98 in 10.0 mi South 3.5 mph - N/A   Clear
8:35 PM 86.0 °F 91.8 °F 71.6 °F 62% 29.98 in 10.0 mi SSW 5.8 mph - N/A   Clear
8:55 PM 84.2 °F 89.6 °F 71.6 °F 66% 29.99 in 10.0 mi SSW 4.6 mph - N/A   Clear
9:15 PM 82.4 °F 87.2 °F 71.6 °F 70% 29.99 in 10.0 mi SSW 4.6 mph - N/A   Clear
9:35 PM 82.4 °F 87.2 °F 71.6 °F 70% 30.00 in 10.0 mi SSW 3.5 mph - N/A   Clear
9:55 PM 82.4 °F 87.2 °F 71.6 °F 70% 30.00 in 10.0 mi SSW 4.6 mph - N/A   Clear
10:15 PM 82.4 °F 87.2 °F 71.6 °F 70% 30.01 in 10.0 mi SSW 4.6 mph - N/A   Clear
10:35 PM 80.6 °F 84.6 °F 71.6 °F 74% 30.01 in 10.0 mi SW 4.6 mph - N/A   Clear
10:55 PM 80.6 °F 85.4 °F 73.4 °F 79% 30.00 in 10.0 mi SSW 5.8 mph - N/A   Clear
11:15 PM 80.6 °F 85.4 °F 73.4 °F 79% 30.00 in 10.0 mi SSW 4.6 mph - N/A   Clear
11:35 PM 80.6 °F 85.4 °F 73.4 °F 79% 30.01 in 10.0 mi SSW 3.5 mph - N/A   Clear
11:55 PM 78.8 °F - 73.4 °F 83% 30.01 in 10.0 mi SW 4.6 mph - N/A   Clear